Weather History for Shreveport, LA

Change the Weather History Date:

Tuesday, November 6, 2012

  Actual Average Record
Temperature  
Mean Temperature 55 °F 60 °F  
Max Temperature 67 °F 71 °F 86 °F (1989)
Min Temperature 43 °F 48 °F 29 °F (1959)
Degree Days  
Heating Degree Days 10 7  
Month to date heating degree days 13 36  
Since 1 July heating degree days 115 122  
Cooling Degree Days 0 1  
Month to date cooling degree days 14 10  
Year to date cooling degree days 2930 2459  
Growing Degree Days 4 (Base 50)    
Moisture  
Dew Point 43 °F    
Average Humidity 63    
Maximum Humidity 89    
Minimum Humidity 37    
Precipitation  
Precipitation 0.00 in 0.15 in 2.37 in (1938)
Month to date precipitation T 0.96  
Year to date precipitation 45.17 43.07  
Snow  
Snow 0.00 in - - ()
Month to date snowfall 0.0  
Since 1 July snowfall 0.0  
Since 1 September snowfall 0.0  
Snow Depth 0.00 in    
Sea Level Pressure  
Sea Level Pressure 30.07 in    
Wind  
Wind Speed 5 mph (NW)    
Max Wind Speed 12 mph    
Max Gust Speed 23 mph    
Visibility 10 miles    
Events      
T = Trace of Precipitation, MM = Missing Value Source: NWS Daily Summary

Daily Weather History Graph

Daily Weather History Graph

Search for Another Location

Airport:

Trip Planner

Search our weather history database for the weather conditions in past years. The results will help you decide how hot, cold, wet, or windy it might be!

Date:

Astronomy

Nov. 06, 2012 Rise Set
Actual Time 6:37 AM CST 5:20 PM CST
Civil Twilight 6:11 AM CST 5:45 PM CST
Nautical Twilight 5:42 AM CST 6:15 PM CST
Astronomical Twilight 5:13 AM CST 6:43 PM CST
Moon 11:55 PM CST (11/6) 12:32 PM CST (11/6)
Length of Visible Light 11h 34m
Length of Day
10h 42m
Waning Gibbous, 53% of the Moon is Illuminated
Nov 6
Waning Gibbous
Nov 6
Last Quarter
Nov 13
New
Nov 20
First Quarter
Nov 28
Full

Hourly Weather History & Observations

Time (CST) Temp. Windchill Dew Point Humidity Pressure Visibility Wind Dir Wind Speed Gust Speed Precip Events Conditions
12:56 AM 54.0 °F - 44.1 °F 69% 30.04 in 10.0 mi NNW 9.2 mph - N/A   Scattered Clouds
1:56 AM 52.0 °F - 43.0 °F 71% 30.04 in 10.0 mi NNW 8.1 mph - N/A   Mostly Cloudy
2:56 AM 51.1 °F - 43.0 °F 74% 30.04 in 10.0 mi NW 5.8 mph - N/A   Scattered Clouds
3:56 AM 46.9 °F - 43.0 °F 86% 30.04 in 10.0 mi NW 5.8 mph - N/A   Partly Cloudy
4:56 AM 46.0 °F 43.9 °F 42.1 °F 86% 30.05 in 10.0 mi NW 4.6 mph - N/A   Partly Cloudy
5:56 AM 46.0 °F 43.9 °F 41.0 °F 83% 30.07 in 10.0 mi NNW 4.6 mph - N/A   Clear
6:56 AM 45.0 °F 43.5 °F 41.0 °F 86% 30.09 in 10.0 mi NW 3.5 mph - N/A   Partly Cloudy
7:56 AM 50.0 °F - 42.1 °F 74% 30.12 in 10.0 mi NNW 9.2 mph - N/A   Partly Cloudy
8:56 AM 54.0 °F - 43.0 °F 66% 30.14 in 10.0 mi NNW 6.9 mph - N/A   Clear
9:56 AM 55.9 °F - 43.0 °F 62% 30.14 in 10.0 mi Variable 5.8 mph - N/A   Partly Cloudy
10:56 AM 59.0 °F - 42.1 °F 53% 30.15 in 10.0 mi NW 8.1 mph - N/A   Scattered Clouds
11:56 AM 62.1 °F - 43.0 °F 50% 30.11 in 10.0 mi North 6.9 mph - N/A   Scattered Clouds
12:56 PM 63.0 °F - 42.1 °F 46% 30.08 in 10.0 mi NW 8.1 mph - N/A   Partly Cloudy
1:56 PM 66.0 °F - 42.1 °F 42% 30.05 in 10.0 mi NNW 9.2 mph - N/A   Partly Cloudy
2:56 PM 66.0 °F - 42.1 °F 42% 30.04 in 10.0 mi NW 4.6 mph - N/A   Partly Cloudy
3:56 PM 66.0 °F - 39.9 °F 38% 30.02 in 10.0 mi West 6.9 mph - N/A   Clear
4:56 PM 64.0 °F - 41.0 °F 43% 30.03 in 10.0 mi WNW 5.8 mph - N/A   Clear
5:56 PM 57.0 °F - 45.0 °F 64% 30.04 in 10.0 mi West 3.5 mph - N/A   Clear
6:56 PM 54.0 °F - 46.0 °F 75% 30.06 in 10.0 mi WSW 4.6 mph - N/A   Clear
7:56 PM 52.0 °F - 45.0 °F 77% 30.07 in 10.0 mi Calm Calm - N/A   Clear
8:56 PM 52.0 °F - 45.0 °F 77% 30.07 in 10.0 mi Calm Calm - N/A   Clear
9:56 PM 51.1 °F - 45.0 °F 80% 30.07 in 10.0 mi Calm Calm - N/A   Clear
10:56 PM 50.0 °F - 44.1 °F 80% 30.07 in 10.0 mi West 3.5 mph - N/A   Clear
11:56 PM 48.0 °F - 44.1 °F 86% 30.08 in 10.0 mi Calm Calm - N/A   Clear